Weather Roundup
Issued by NWS Chicago, IL

Home | Current Version | Previous Version | Graphics & Text | Print | Product List | Glossary On
Versions: 1 2 3 4 5 6 7 8 9 10 11 12 13 14 15 16 17 18 19 20 21 22 23 24 25 26 27 28 29 30 31 32 33 34 35 36 37 38 39 40 41 42 43 44 45 46 47 48 49 50
000
NZUS59 KLOT 271308
HRRLOT

CHICAGO AREA WEATHER ROUNDUP
NATIONAL WEATHER SERVICE CHICAGO/ROMEOVILLE IL
800 AM CDT WED MAY 27 2015

NOTE: "FAIR" INDICATES FEW OR NO CLOUDS BELOW 12,000 FEET WITH NO
SIGNIFICANT WEATHER AND/OR OBSTRUCTIONS TO VISIBILITY.

* THESE STATIONS ARE NOT UNDER NWS QUALITY CONTROL. THEY ALSO MAY NOT
  REPORT WEATHER SUCH AS PRECIPITATION OR FOG.

ILZ005-006-012>014-019>023-271400-
NORTHEAST ILLINOIS

CITY           SKY/WX    TMP DP  RH WIND       PRES   REMARKS
OHARE          PTSUNNY   66  59  78 W20       29.93R
MIDWAY         PTSUNNY   69  62  78 SW21      29.94R
AURORA         MOSUNNY   66  60  81 SW14      29.95R
LANSING*       PTSUNNY   68  60  74 SW15G22   29.97R
JOLIET*        CLOUDY    68  63  83 SW10G20   29.97R
WAUKEGAN       CLOUDY    65  60  84 SW12G20   29.90R
DUPAGE AIRPORT PTSUNNY   65  60  84 SW14      29.94R
WHEELING       CLOUDY    65  59  81 SW13G22   29.94R
KANKAKEE*      PTSUNNY   69  64  84 SW13G21   29.99R
MORRIS*        PTSUNNY   67  63  85 SW13      29.96R
LEWIS AIRPORT* CLOUDY    66  61  84 SW13      29.97R
NORTHERLY IS     N/A     68  59  73 W6          N/A
$$

WIZ051-052-058>065-066-070>072-271400-
SOUTHEAST WISCONSIN

CITY           SKY/WX    TMP DP  RH WIND       PRES   REMARKS
MILWAUKEE      PTSUNNY   64  57  78 W12       29.88R
KENOSHA*       CLOUDY    66  62  87 SW14      29.89R
RACINE*        MOSUNNY   65  60  84 W7        29.90R
BURLINGTON     CLOUDY    62  59  90 W7        29.90R
WAUKESHA       CLOUDY    61  57  88 SW9       29.90R
WEST BEND      CLOUDY    63  55  77 W10       29.86R
$$

INZ001>003-010>013-019-020-271400-
NORTHWEST INDIANA

CITY           SKY/WX    TMP DP  RH WIND       PRES   REMARKS
GARY*          PTSUNNY   70  63  78 SW13G24   29.96R
MICHIGAN CITY* NOT AVBL
RENSSELAER*    NOT AVBL
VALPARAISO     MOSUNNY   69  62  78 SW16G25   29.99R
$$

LMZ740>746-271400-
SOUTHERN LAKE MICHIGAN

STATION/POSITION TIME  SKY/WX   TEMP WIND        PRES    VSBY
                                AIR  DIR/SP/G
                 (UTC)          (F)  (DEG/KT/KT) (MB)    (MI)
HARRISON CRIB    1200            66  230/ 14/ 18   N/A
BURNHAM HARBOR   1300            68  210/  9/ 13   N/A
CALUMET HARBOR   1200            67  210/  9/ 15   N/A
BURNS HARBOR     1300            68  230/ 16/ 22 1015.2R
MICHIGAN CITY    1200            66  190/ 16/ 20   N/A
$$

ABBREVIATIONS USED IN REMARKS
   TC - TEMPERATURE IN CELSIUS
  WCI - WIND CHILL INDEX
   HX - HEAT INDEX
  VSB - VISIBILITY
$$


USA.gov is the U.S. government's official web portal to all federal, state and local government web resources and services.